Back to catalog

SL-8 DEB

AliveLEO
NORAD 21959·DEBRIS·🇷🇺 Russia

Launched Feb 12, 1991 from Plesetsk Cosmodrome

Loading…

Next Passes (next 24 hours)

TLE

FreshSource: Space-Track

Epoch: Sep 14, 2026, 10:51 UTC

1 21959U 91009CH  26257.45268786 -.00000010  00000-0  49241-4 0  9999
2 21959  73.9667  59.7151 0129814 327.0747  60.8964 12.18983391579299

Track SL-8 DEB in real time with AllMySat

Download on the App Store